Home   Weather   Asheville   Past weeks

Flag for USA Past Weather in Asheville, North Carolina, USA — Yesterday and Last 2 Weeks

Now
56 °F

Sunny.


Feels Like: 54 °F
Forecast: 43 / 59 °F
Wind: 8 mph from North

Location: Asheville Regional Airport

Current Time: Jan 18, 2017 at 9:36:02 am

Latest Report: Jan 18, 2017 at 8:54 am


Visibility: 10 mi

Pressure: 30.05 "Hg (27.82 "Hg at 647m altitude)

Humidity: 65%

Dew Point: 44 °F

Location of AshevilleLocation

Past Weather in Asheville — Graph

°F

Asheville Temperature Yesterday

Maximum temperature yesterday: 62 °F (at 1:54 pm)
Minimum temperature yesterday: 50 °F (at 12:12 am)
Average temperature yesterday: 56 °F

High & Low Weather Summary for the Past Weeks

 TemperatureHumidityPressure
High68 °F (Jan 13, 12:54 pm)97% (Jan 14, 2:54 am)30.71 "Hg (Jan 14, 2:54 am)
Low8 °F (Jan 8, 7:54 am)29% (Jan 5, 2:54 pm)29.66 "Hg (Jan 4, 1:54 am)
Average42 °F72%30.24 "Hg
* Reported Jan 3 7:32 am — Jan 18 7:54 am, Asheville, Weather by CustomWeather, © 2017

Note: Actual official high and low records may vary slightly from our data, if they occured in-between our weather recording intervals... More about our weather records

Advertising

Asheville Weather History for the Previous 24 Hours

Scroll right to see more
 ConditionsComfort  
Time TempWeatherWind HumidityBarometerVisibility
7:54 am
Wed, Jan 18
55 °FPassing clouds.9 mph69%30.03 "Hg10 mi
6:54 am56 °FMostly cloudy.5 mph81%30.02 "Hg10 mi
5:54 am57 °FMostly cloudy.14 mph81%30.00 "Hg10 mi
4:54 am61 °FMostly cloudy.14 mph70%29.97 "Hg10 mi
3:54 am64 °FOvercast.15 mph58%29.96 "Hg10 mi
2:54 am63 °FPartly cloudy.13 mph63%29.97 "Hg10 mi
1:54 am59 °FPassing clouds.6 mph78%29.98 "Hg10 mi
12:54 am61 °FPassing clouds.3 mph72%29.99 "Hg10 mi
11:54 pm
Tue, Jan 17
61 °FOvercast.10 mph75%30.02 "Hg10 mi
10:54 pm61 °FPassing clouds.8 mph75%30.03 "Hg10 mi
9:54 pm61 °FPassing clouds.7 mph75%30.05 "Hg10 mi
8:54 pm61 °FOvercast.12 mph75%30.08 "Hg10 mi
7:54 pm60 °FPassing clouds.8 mph75%30.09 "Hg10 mi
6:54 pm59 °FPassing clouds.10 mph78%30.10 "Hg10 mi
5:54 pm59 °FMostly cloudy.7 mph78%30.10 "Hg10 mi
4:54 pm60 °FOvercast.13 mph75%30.09 "Hg10 mi
3:54 pm61 °FOvercast.15 mph70%30.09 "Hg10 mi
2:54 pm62 °FPartly sunny.13 mph67%30.07 "Hg10 mi
1:54 pm62 °FBroken clouds.10 mph65%30.08 "Hg10 mi
12:54 pm61 °FPartly sunny.15 mph67%30.11 "Hg10 mi
11:54 am60 °FPartly sunny.15 mph69%30.15 "Hg10 mi
10:54 am58 °FOvercast.5 mph75%30.18 "Hg10 mi
9:54 am56 °FMostly cloudy.13 mph81%30.19 "Hg10 mi
Weather by CustomWeather, © 2017

See weather overviewHow to use our weather pages